Weather History for TTCP - April, 2014

Change the Weather History Date:

Monday, April 7, 2014

  Actual Average Record
Temperature  
Mean Temperature 82 °F -  
Max Temperature 86 °F 85 °F 87 °F (1998)
Min Temperature 77 °F 75 °F 71 °F (2008)
Cooling Degree Days 16    
Growing Degree Days 32 (Base 50)    
Moisture  
Dew Point 70 °F    
Average Humidity 70    
Maximum Humidity 78    
Minimum Humidity 55    
Precipitation  
Precipitation 0.00 in - - ()
Sea Level Pressure  
Sea Level Pressure 30.00 in    
Wind  
Wind Speed 11 mph ()    
Max Wind Speed 24 mph    
Max Gust Speed -    
Visibility 6.2 miles    
Events      
Averages and records for this station are not official NWS values.
T = Trace of Precipitation, MM = Missing Value Source: Averaged Metar Reports

Daily Weather History Graph

Daily Weather History Graph

Search for Another Location

Airport or City:

Trip Planner

Search our weather history database for the weather conditions in past years. The results will help you decide how hot, cold, wet, or windy it might be!

Date:

Astronomy

Apr. 07, 2014 Rise Set
Actual Time 5:56 AM AST 6:14 PM AST
Civil Twilight 5:35 AM AST 6:35 PM AST
Nautical Twilight 5:10 AM AST 7:00 PM AST
Astronomical Twilight 4:45 AM AST 7:25 PM AST
Moon 12:15 PM AST (4/7) 12:19 AM AST (4/7)
Length of Visible Light 13h 00m
Length of Day
12h 17m
First Quarter, 53% of the Moon is Illuminated
Apr 7
First Quarter
Apr 15
Full
Apr 22
Last Quarter
Apr 29
New
May 6
First Quarter

Hourly Weather History & Observations

Time (AST) Temp. Heat Index Dew Point Humidity Pressure Visibility Wind Dir Wind Speed Gust Speed Precip Events Conditions
12:00 AM 77.0 °F - 69.8 °F 78% 30.01 in 6.2 mi ENE 5.8 mph - N/A   Scattered Clouds
1:00 AM 78.8 °F - 69.8 °F 74% 29.98 in 6.2 mi ENE 9.2 mph - N/A   Mostly Cloudy
2:00 AM 78.8 °F - 69.8 °F 74% 29.98 in 6.2 mi East 11.5 mph - N/A   Mostly Cloudy
3:00 AM 77.0 °F - 69.8 °F 78% 29.98 in 6.2 mi ENE 5.8 mph - N/A   Mostly Cloudy
4:00 AM 77.0 °F - 69.8 °F 78% 29.98 in 6.2 mi ENE 6.9 mph - N/A   Mostly Cloudy
5:00 AM 77.0 °F - 69.8 °F 78% 29.98 in 6.2 mi NE 5.8 mph - N/A   Mostly Cloudy
6:00 AM 77.0 °F - 69.8 °F 78% 30.01 in 6.2 mi ENE 5.8 mph - N/A   Mostly Cloudy
7:00 AM 78.8 °F - 69.8 °F 74% 30.01 in 6.2 mi East 11.5 mph - N/A   Partly Cloudy
8:00 AM 82.4 °F 87.2 °F 71.6 °F 70% 30.04 in 6.2 mi ENE 12.7 mph - N/A   Scattered Clouds
9:00 AM 84.2 °F 87.3 °F 68.0 °F 58% 30.04 in 6.2 mi East 20.7 mph - N/A   Partly Cloudy
10:00 AM 84.2 °F 89.6 °F 71.6 °F 66% 30.04 in 6.2 mi ENE 19.6 mph - N/A   Partly Cloudy
11:00 AM 86.0 °F 90.4 °F 69.8 °F 58% 30.04 in 6.2 mi East 24.2 mph - N/A   Partly Cloudy
12:00 PM 86.0 °F 89.4 °F 68.0 °F 55% 30.04 in 6.2 mi East 24.2 mph - N/A   Partly Cloudy
1:00 PM 84.2 °F 89.6 °F 71.6 °F 66% 30.01 in 6.2 mi East 20.7 mph - N/A   Partly Cloudy
2:00 PM 86.0 °F 93.4 °F 73.4 °F 66% 29.98 in 6.2 mi East 24.2 mph - N/A   Partly Cloudy
3:00 PM 86.0 °F 90.4 °F 69.8 °F 58% 29.98 in 6.2 mi East 23.0 mph - N/A   Partly Cloudy
4:00 PM 84.2 °F 89.6 °F 71.6 °F 66% 29.95 in 6.2 mi East 20.7 mph - N/A   Partly Cloudy
5:00 PM 82.4 °F 86.3 °F 69.8 °F 66% 29.95 in 6.2 mi East 19.6 mph - N/A   Partly Cloudy
6:00 PM 80.6 °F 83.2 °F 68.0 °F 65% 29.95 in 6.2 mi East 16.1 mph - N/A   Partly Cloudy
7:00 PM 78.8 °F - 69.8 °F 74% 29.98 in 6.2 mi ENE 13.8 mph - N/A   Partly Cloudy
8:00 PM 78.8 °F - 69.8 °F 74% 29.98 in 6.2 mi East 13.8 mph - N/A   Partly Cloudy
9:00 PM 78.8 °F - 69.8 °F 74% 30.01 in 6.2 mi ENE 12.7 mph - N/A   Partly Cloudy
10:00 PM 78.8 °F - 69.8 °F 74% 30.01 in 6.2 mi NE 3.5 mph - N/A   Partly Cloudy
11:00 PM 77.0 °F - 68.0 °F 74% 30.04 in 6.2 mi Calm Calm - N/A   Partly Cloudy